{"data":{"norad_id":50478,"intl_designator":"2021-132K","name":"ONEWEB-0398","alt_names":[],"object_type":"PAYLOAD","status":"ACTIVE","operator":null,"country":"UK","launch_date":"2021-12-27","launch_site_code":"TYMSC","launch_vehicle":null,"mission":null,"orbit_class":"UNKNOWN","rcs_meters":null,"size_class":null,"mass_kg":null,"dimensions":null,"purposes":["comms"],"wikipedia_slug":null,"has_3d_model":false,"image_url":null,"decayed_at":null,"tle_current":{"epoch":"2026-09-19T14:09:56.851776Z","epoch_age_seconds":104488,"freshness":"FRESH","line1":"1 50478U 21132K   26262.59024134  .00000303  00000+0  82026-3 0  9995","line2":"2 50478  87.8972   2.2968 0001510 106.2239 253.9056 13.11415327227980","mean_motion":13.11415327,"eccentricity":0.000151,"inclination_deg":87.8972,"raan_deg":2.2968,"arg_perigee_deg":106.2239,"mean_anomaly_deg":253.9056,"bstar":0.00082026,"rev_number":22798,"period_min":109.80503051571,"perigee_km":1216.5419763759,"apogee_km":1218.8359158116,"semimajor_km":7595.8259460938,"source":"CELESTRAK","updated_at":"2026-09-20T09:00:44.701146Z"}}}